Find Starlink 38335

NORAD ID: 100550 Int'l Des: 2026-200 Owner: SPXS Country: US Constellation: starlink operational

Current View

Loading 3D Globe...

About Starlink 38335

Starlink 38335 (NORAD 100550) is a starlink constellation satellite launched Sep 2, 2026 by SPXS of US. with a mass of 575.00 kg.

Upcoming Passes

Passes for default location (London). Set your location on the main map for personalized predictions.

Altitude History

Loading altitude history...

Two-Line Element Set

1 A0550U 26200S 26263.60402884 .00131763 00000-0 77848-3 0 9999
2 A0550 69.9989 134.9336 0004113 275.1863 84.8867 15.77584737 2908
Epoch: Sep 20, 2026 • Age: 6 hours

Current Status

Altitude 349.5 km
Apogee / Perigee N/A
Velocity 7.70 km/s
Sub-Earth Point 61.55°N, 136.8°W
Launch Date Sep 2, 2026
Age 18 days
Type internet

Technical Details

Classification Payload
Mass 575.00 kg
Dry Mass 530.00 kg
Length 0.30 m
Span 29.00 m
Shape ? Box + pan
Manufacturer SPXS
Bus Type Starlink V2MO
Phase Status In Orbit
Owner/State SPXS/US

Most Searched